GFSMA_prec_precacc_195.txt.gz
Total_Precipitation_Accumulation
0.73 0.46 0.28 0.34 0.39 0.45 0.68 0.92 1.20 1.20 1.23 1.17 1.26 1.16 0.94 0.74 0.85 1.00 1.09 1.42 1.31 1.12 1.13 1.06 0.81 0.87 0.70 0.63 0.66 0.68 0.58 0.47 0.49 0.51 0.45 0.37 0.44 0.53 0.53 0.51 0.52 0.45 0.50
0.70 0.58 0.38 0.36 0.35 0.39 0.55 0.80 1.16 1.27 1.34 1.52 1.29 0.96 0.94 0.67 0.67 1.06 1.75 1.84 1.42 1.37 1.15 1.27 1.46 1.29 1.05 0.94 0.88 0.79 0.61 0.51 0.49 0.43 0.47 0.48 0.47 0.52 0.47 0.43 0.48 0.51 0.50
0.67 0.72 0.69 0.63 0.51 0.47 0.56 0.84 1.12 1.26 1.05 1.00 1.09 1.32 1.55 1.46 0.89 0.59 0.73 0.86 0.91 0.95 1.05 1.39 1.57 1.77 1.91 1.68 1.28 0.96 0.83 0.57 0.47 0.46 0.43 0.41 0.42 0.39 0.42 0.42 0.45 0.51 0.57
1.12 0.93 0.70 0.77 0.89 0.77 0.68 0.82 1.06 1.61 1.49 1.09 0.74 0.75 1.03 1.16 1.04 1.09 0.82 0.66 0.64 0.79 1.17 1.02 1.78 2.45 2.30 1.68 1.18 1.02 0.71 0.63 0.62 0.69 0.76 0.68 0.53 0.45 0.42 0.39 0.50 0.65 0.65
1.74 1.34 1.25 1.33 1.27 1.29 1.36 1.60 1.81 1.93 1.54 1.22 0.88 0.66 0.62 0.59 0.47 0.43 0.45 0.46 0.45 0.44 0.44 0.55 0.78 1.06 0.95 0.91 0.80 0.73 0.67 0.57 0.58 0.69 0.86 0.92 0.78 0.69 0.65 0.57 0.61 0.67 0.71
1.08 1.16 1.37 1.60 1.59 1.46 1.19 0.99 1.10 1.25 1.23 1.08 0.98 0.69 0.62 0.43 0.32 0.23 0.24 0.34 0.37 0.52 0.51 0.42 0.57 0.63 0.58 0.58 0.66 0.71 0.67 0.72 0.71 0.71 0.81 0.94 1.06 1.02 0.98 0.92 0.93 1.00 0.96
1.01 0.87 1.15 1.98 2.15 1.36 0.91 0.94 1.22 1.22 1.09 0.96 1.31 1.03 0.74 0.48 0.33 0.22 0.18 0.25 0.26 0.32 0.63 0.66 0.48 0.56 0.69 0.49 0.42 0.55 0.73 0.89 0.95 0.92 1.02 1.05 1.05 1.12 1.18 1.16 1.05 1.30 1.31
0.84 0.95 0.74 0.85 1.41 1.73 1.56 1.10 1.09 1.35 1.24 1.18 1.29 1.24 1.10 1.09 0.65 0.36 0.33 0.22 0.20 0.29 0.27 0.42 0.54 0.44 0.54 0.77 0.41 0.37 0.66 0.95 1.08 1.14 1.44 1.57 1.31 1.24 1.33 1.44 1.55 1.49 1.70
0.83 0.90 0.84 0.74 0.89 1.53 1.57 1.19 0.83 0.96 1.35 1.30 1.20 1.17 1.11 0.76 0.55 0.34 0.34 0.26 0.21 0.20 0.23 0.25 0.28 0.33 0.31 0.59 0.90 0.49 0.34 0.67 1.02 1.21 1.33 1.76 1.88 1.38 1.18 1.25 1.44 1.48 1.46
1.05 0.91 1.05 1.05 0.91 0.88 1.19 1.17 0.95 0.86 1.34 1.22 1.75 1.19 0.77 0.73 0.99 0.75 0.53 0.46 0.43 0.29 0.24 0.35 0.36 0.28 0.30 0.33 0.50 0.71 0.38 0.24 0.48 0.83 1.30 1.63 1.68 1.55 1.45 1.36 1.17 1.24 1.36
1.27 1.29 1.23 1.33 1.33 1.37 1.01 1.50 1.41 1.29 1.40 1.09 0.66 0.97 1.21 1.04 1.27 1.39 0.94 0.60 0.68 0.50 0.44 0.43 0.60 0.46 0.41 0.48 0.45 0.40 0.40 0.40 0.41 0.53 0.67 0.91 1.27 1.31 1.17 1.55 2.11 1.74 1.43
1.34 1.33 1.33 1.32 1.22 1.21 1.31 1.51 1.86 1.82 1.82 1.58 1.17 1.08 1.01 1.00 0.77 1.16 1.30 0.88 0.80 0.70 0.67 1.03 0.89 0.78 0.69 0.67 0.70 0.64 0.53 0.59 0.66 0.54 0.45 0.68 0.99 1.25 1.43 1.36 1.45 2.17 2.39
1.56 1.08 1.20 1.22 1.17 0.95 1.01 1.28 1.69 1.88 2.21 2.27 2.07 1.64 1.26 1.11 1.08 1.18 1.27 1.16 1.07 0.75 0.76 0.88 0.85 0.83 0.90 1.02 0.95 0.99 0.94 0.88 0.96 1.08 0.94 0.92 0.92 1.07 1.51 1.53 1.49 1.66 2.08
1.13 0.91 1.11 1.24 1.23 1.26 1.26 1.16 1.24 1.24 1.34 1.70 2.40 2.93 2.93 2.23 1.83 1.89 1.99 2.18 2.17 1.72 1.45 0.88 0.61 0.63 0.62 0.78 0.89 1.29 1.19 1.15 1.13 1.19 1.18 1.11 1.06 1.03 1.16 1.65 1.96 1.93 1.94
1.15 1.10 1.25 1.33 1.38 1.32 1.32 1.33 1.20 1.16 1.18 1.19 1.18 1.38 1.69 1.86 1.84 1.71 1.81 2.16 2.79 2.49 1.75 1.28 0.74 0.52 0.44 0.59 0.77 0.99 0.99 1.03 1.14 1.11 1.20 1.29 1.28 1.27 1.28 1.23 1.36 1.64 1.91
1.46 1.59 1.61 1.50 1.51 1.56 1.61 1.58 1.45 1.32 1.42 1.30 1.12 1.06 1.07 1.11 1.15 1.18 1.30 1.64 2.17 2.35 1.93 1.20 0.94 0.62 0.64 0.66 0.81 0.86 1.27 1.50 1.09 1.14 1.16 1.36 1.46 1.38 1.16 1.16 1.27 1.49 1.60
1.95 1.86 1.94 2.15 1.99 2.02 2.02 1.98 1.82 1.54 1.45 1.40 1.30 1.22 0.96 0.89 1.05 1.29 1.44 1.54 1.76 2.05 2.10 1.35 1.16 1.06 1.03 0.97 0.79 0.69 0.83 0.97 1.23 1.25 0.99 0.89 1.05 1.31 1.56 1.65 1.49 1.43 1.66
1.80 1.74 1.94 2.05 1.99 2.15 2.26 2.12 2.01 1.74 1.57 1.68 1.75 1.81 1.61 1.40 1.38 1.38 1.62 1.51 1.51 1.70 1.78 1.43 1.10 0.93 0.89 0.93 0.95 0.89 0.86 0.75 0.71 0.96 1.20 1.00 0.96 1.08 1.23 1.59 2.14 2.06 1.85
2.75 2.56 2.58 2.66 2.38 2.31 2.55 2.55 2.41 2.04 1.83 1.85 1.71 1.66 1.55 1.52 1.61 1.50 1.62 1.80 1.54 1.31 1.45 1.71 1.40 1.14 0.99 0.91 0.93 0.93 0.87 0.88 0.80 0.99 1.08 1.19 1.22 1.09 1.22 1.33 1.46 1.61 1.62
2.01 2.23 2.19 2.16 2.12 2.11 2.15 2.36 2.43 2.41 1.96 1.78 1.73 1.71 1.76 1.60 1.42 1.23 1.20 1.25 1.23 1.16 1.13 1.31 1.47 1.41 1.34 1.28 1.35 1.17 1.00 0.95 1.00 0.91 0.99 0.95 0.96 1.01 1.20 1.47 1.56 1.41 1.29
1.44 1.43 1.40 1.59 1.66 1.75 1.99 1.88 1.91 2.11 2.06 1.87 1.65 1.54 1.53 1.79 1.74 1.53 1.40 1.38 1.23 1.29 1.36 1.42 1.46 1.28 1.27 1.33 1.31 1.31 1.28 1.35 1.30 1.02 0.92 0.96 0.94 1.00 1.09 1.28 1.42 1.54 1.57
1.43 1.56 1.37 1.45 1.72 1.76 2.08 1.99 1.89 2.05 2.06 2.11 2.08 1.79 1.79 1.92 1.80 1.89 1.66 1.44 1.37 1.43 1.44 1.34 1.37 1.42 1.26 1.11 1.16 1.29 1.56 1.74 1.70 1.30 1.40 1.52 1.45 1.53 1.46 1.48 1.93 1.68 1.50
1.98 1.80 1.94 1.85 1.78 1.70 2.17 2.12 2.15 1.93 2.28 2.19 2.13 1.97 1.87 1.86 1.90 1.60 1.82 1.77 1.76 1.84 1.66 1.41 1.44 1.43 1.41 1.31 1.41 1.58 1.68 1.76 1.82 1.52 1.67 2.01 1.81 1.80 1.68 1.80 2.11 1.65 1.61
2.45 2.08 1.95 1.88 1.74 2.26 2.34 2.62 2.87 2.45 2.11 2.10 2.21 2.08 1.95 1.86 1.99 1.89 1.75 1.80 1.82 1.97 2.12 2.16 2.22 2.42 2.45 2.33 2.39 2.48 2.55 2.66 2.69 2.38 2.08 2.18 1.87 1.77 1.65 1.62 2.12 1.50 1.42
2.85 2.64 2.19 1.97 1.99 1.95 1.82 1.53 1.68 1.86 2.31 2.57 2.48 2.48 2.57 2.48 3.12 3.00 2.53 2.69 2.85 3.01 3.48 3.44 3.31 3.27 3.14 2.89 2.56 2.46 2.88 2.88 3.01 2.62 2.23 2.20 2.13 2.12 2.06 1.90 1.73 1.68 1.30
2.34 2.29 2.29 2.01 2.05 1.88 2.16 1.73 1.44 0.96 1.21 1.53 1.85 2.15 2.72 2.34 2.72 2.49 2.24 2.18 2.76 3.24 3.04 3.14 3.24 3.08 2.90 2.83 3.02 2.76 2.51 2.55 2.57 2.74 2.31 2.33 2.20 2.22 2.48 2.03 1.62 1.44 1.29

GFSMA_prec_precacc_198.txt.gz
Total_Precipitation_Accumulation
0.73 0.46 0.29 0.34 0.39 0.45 0.68 0.92 1.20 1.20 1.23 1.17 1.26 1.16 0.94 0.74 0.85 1.00 1.09 1.43 1.31 1.13 1.14 1.06 0.81 0.87 0.70 0.64 0.67 0.69 0.58 0.48 0.49 0.51 0.45 0.37 0.44 0.53 0.53 0.51 0.53 0.46 0.50
0.71 0.58 0.39 0.38 0.35 0.39 0.55 0.80 1.16 1.27 1.34 1.52 1.29 0.96 0.94 0.67 0.67 1.06 1.75 1.84 1.42 1.38 1.15 1.28 1.47 1.29 1.06 0.95 0.89 0.79 0.61 0.51 0.49 0.43 0.48 0.48 0.48 0.53 0.47 0.43 0.49 0.51 0.50
0.67 0.72 0.69 0.63 0.51 0.47 0.56 0.84 1.12 1.26 1.05 1.00 1.09 1.32 1.55 1.46 0.89 0.59 0.73 0.86 0.91 0.96 1.06 1.39 1.57 1.78 1.92 1.69 1.29 0.97 0.83 0.58 0.48 0.47 0.43 0.41 0.42 0.40 0.43 0.43 0.45 0.52 0.57
1.13 0.93 0.70 0.77 0.90 0.77 0.68 0.82 1.06 1.61 1.49 1.09 0.74 0.75 1.03 1.16 1.04 1.09 0.82 0.66 0.64 0.79 1.18 1.02 1.79 2.45 2.31 1.69 1.19 1.03 0.72 0.63 0.63 0.69 0.77 0.69 0.54 0.46 0.42 0.40 0.50 0.65 0.65
1.75 1.35 1.25 1.33 1.27 1.29 1.36 1.60 1.81 1.93 1.54 1.22 0.88 0.66 0.62 0.59 0.47 0.43 0.45 0.46 0.45 0.44 0.44 0.55 0.79 1.07 0.95 0.91 0.81 0.74 0.68 0.58 0.59 0.70 0.86 0.92 0.78 0.69 0.65 0.57 0.62 0.68 0.72
1.11 1.18 1.38 1.61 1.60 1.47 1.19 0.99 1.10 1.25 1.24 1.08 0.98 0.69 0.62 0.43 0.32 0.23 0.24 0.34 0.37 0.52 0.51 0.42 0.57 0.63 0.59 0.59 0.67 0.72 0.68 0.73 0.72 0.72 0.81 0.94 1.06 1.03 0.99 0.92 0.93 1.01 0.96
1.10 0.94 1.21 2.00 2.17 1.38 0.92 0.94 1.22 1.22 1.09 0.96 1.31 1.03 0.74 0.48 0.33 0.22 0.18 0.25 0.26 0.32 0.63 0.66 0.48 0.56 0.69 0.49 0.42 0.56 0.74 0.90 0.96 0.92 1.03 1.06 1.05 1.13 1.18 1.17 1.05 1.30 1.32
0.97 1.05 0.83 0.91 1.48 1.77 1.59 1.12 1.10 1.37 1.24 1.18 1.29 1.24 1.10 1.09 0.65 0.36 0.33 0.22 0.20 0.29 0.27 0.42 0.54 0.44 0.54 0.77 0.41 0.37 0.67 0.96 1.09 1.14 1.45 1.57 1.32 1.24 1.33 1.44 1.55 1.49 1.70
0.96 1.05 1.00 0.86 0.98 1.59 1.60 1.20 0.85 0.97 1.36 1.30 1.20 1.18 1.12 0.76 0.55 0.34 0.34 0.26 0.21 0.20 0.23 0.25 0.28 0.33 0.31 0.59 0.90 0.49 0.34 0.68 1.02 1.21 1.33 1.77 1.88 1.38 1.18 1.25 1.45 1.49 1.46
1.09 0.95 1.12 1.14 1.02 0.97 1.25 1.22 0.99 0.88 1.35 1.24 1.76 1.19 0.77 0.73 0.99 0.75 0.53 0.46 0.43 0.29 0.24 0.35 0.36 0.28 0.30 0.33 0.50 0.71 0.38 0.24 0.48 0.83 1.30 1.63 1.68 1.55 1.45 1.36 1.17 1.24 1.36
1.29 1.33 1.30 1.45 1.50 1.58 1.18 1.65 1.50 1.35 1.44 1.11 0.67 0.98 1.22 1.04 1.27 1.39 0.94 0.60 0.68 0.50 0.44 0.43 0.60 0.46 0.41 0.48 0.45 0.40 0.40 0.40 0.41 0.53 0.67 0.91 1.27 1.31 1.17 1.55 2.11 1.74 1.43
1.34 1.33 1.34 1.35 1.29 1.35 1.49 1.74 2.10 2.03 1.97 1.67 1.21 1.09 1.03 1.01 0.77 1.16 1.30 0.88 0.80 0.70 0.67 1.03 0.89 0.78 0.69 0.67 0.70 0.64 0.53 0.59 0.66 0.54 0.45 0.68 0.99 1.25 1.43 1.36 1.45 2.17 2.39
1.56 1.08 1.21 1.22 1.19 0.99 1.08 1.40 1.87 2.06 2.43 2.49 2.19 1.69 1.30 1.13 1.08 1.18 1.27 1.16 1.07 0.75 0.77 0.89 0.85 0.84 0.91 1.03 0.95 0.99 0.94 0.88 0.96 1.08 0.94 0.92 0.92 1.07 1.51 1.53 1.49 1.66 2.08
1.13 0.91 1.11 1.25 1.24 1.27 1.28 1.25 1.39 1.40 1.49 1.89 2.61 3.06 3.00 2.28 1.86 1.90 2.00 2.18 2.17 1.72 1.46 0.88 0.61 0.63 0.62 0.78 0.89 1.29 1.19 1.15 1.13 1.19 1.18 1.11 1.06 1.03 1.16 1.65 1.96 1.93 1.94
1.15 1.10 1.25 1.34 1.38 1.34 1.34 1.37 1.29 1.28 1.32 1.34 1.37 1.59 1.84 1.95 1.89 1.74 1.83 2.17 2.79 2.50 1.77 1.29 0.75 0.53 0.46 0.59 0.78 0.99 0.99 1.03 1.14 1.11 1.20 1.29 1.28 1.27 1.28 1.23 1.36 1.64 1.91
1.46 1.59 1.61 1.50 1.51 1.57 1.62 1.60 1.51 1.40 1.53 1.43 1.26 1.22 1.25 1.25 1.21 1.25 1.32 1.64 2.17 2.36 1.95 1.23 0.98 0.67 0.72 0.73 0.85 0.88 1.28 1.51 1.10 1.15 1.16 1.36 1.46 1.38 1.16 1.16 1.27 1.49 1.60
1.95 1.86 1.95 2.15 1.99 2.02 2.02 1.99 1.87 1.73 1.65 1.56 1.46 1.36 1.13 1.06 1.17 1.35 1.48 1.54 1.76 2.06 2.12 1.40 1.23 1.12 1.13 1.07 0.84 0.71 0.85 0.98 1.24 1.25 0.99 0.89 1.05 1.31 1.56 1.65 1.49 1.43 1.66
1.80 1.74 1.94 2.05 1.99 2.16 2.28 2.18 2.09 1.95 1.84 1.95 1.99 1.95 1.74 1.58 1.56 1.47 1.68 1.54 1.52 1.70 1.80 1.51 1.19 1.03 0.99 1.00 0.98 0.91 0.87 0.76 0.71 0.96 1.20 1.00 0.96 1.08 1.23 1.59 2.14 2.06 1.85
2.75 2.56 2.58 2.66 2.38 2.34 2.62 2.67 2.58 2.32 2.17 2.13 1.97 1.92 1.78 1.70 1.81 1.73 1.72 1.84 1.56 1.34 1.54 1.83 1.54 1.26 1.12 0.99 0.97 0.94 0.87 0.89 0.80 0.99 1.09 1.19 1.22 1.09 1.22 1.33 1.46 1.61 1.62
2.01 2.23 2.19 2.16 2.14 2.17 2.23 2.54 2.75 2.81 2.45 2.25 2.12 1.99 2.04 1.85 1.61 1.37 1.35 1.32 1.29 1.24 1.21 1.40 1.56 1.49 1.41 1.33 1.37 1.18 1.01 0.95 1.00 0.91 0.99 0.95 0.96 1.01 1.20 1.47 1.56 1.41 1.29
1.45 1.43 1.41 1.61 1.71 1.86 2.14 2.07 2.21 2.47 2.45 2.33 2.06 1.90 1.83 2.07 2.00 1.74 1.54 1.54 1.43 1.52 1.56 1.59 1.56 1.35 1.30 1.36 1.34 1.32 1.28 1.35 1.30 1.02 0.92 0.96 0.94 1.00 1.09 1.28 1.42 1.54 1.57
1.45 1.58 1.39 1.51 1.82 1.88 2.26 2.19 2.10 2.29 2.42 2.40 2.42 2.23 2.19 2.23 2.07 2.14 1.88 1.62 1.55 1.59 1.58 1.45 1.44 1.46 1.27 1.12 1.16 1.29 1.56 1.74 1.70 1.30 1.40 1.52 1.45 1.53 1.46 1.48 1.93 1.68 1.50
2.01 1.83 1.96 1.88 1.85 1.80 2.34 2.35 2.34 2.11 2.51 2.51 2.40 2.29 2.26 2.24 2.26 1.88 2.04 2.00 1.92 1.97 1.73 1.47 1.49 1.45 1.41 1.31 1.41 1.58 1.68 1.76 1.82 1.52 1.67 2.01 1.81 1.80 1.68 1.80 2.11 1.65 1.61
2.49 2.11 1.98 1.93 1.80 2.36 2.46 2.81 3.14 2.65 2.30 2.33 2.44 2.29 2.15 2.09 2.25 2.14 1.96 1.98 1.95 2.10 2.23 2.20 2.24 2.44 2.45 2.33 2.39 2.48 2.55 2.66 2.69 2.38 2.08 2.18 1.87 1.77 1.65 1.62 2.12 1.50 1.42
2.88 2.66 2.22 2.02 2.06 2.04 1.92 1.63 1.80 2.06 2.47 2.74 2.63 2.62 2.69 2.59 3.24 3.11 2.64 2.80 2.96 3.11 3.56 3.47 3.32 3.27 3.14 2.89 2.56 2.46 2.88 2.88 3.01 2.62 2.23 2.20 2.13 2.12 2.06 1.90 1.73 1.68 1.30
2.39 2.31 2.34 2.06 2.11 1.95 2.24 1.81 1.52 1.06 1.36 1.67 2.03 2.29 2.86 2.46 2.82 2.57 2.29 2.23 2.82 3.30 3.08 3.15 3.24 3.08 2.90 2.83 3.02 2.76 2.51 2.55 2.57 2.74 2.31 2.33 2.20 2.22 2.48 2.03 1.62 1.44 1.29

GFSMA_prec_precacc_201.txt.gz
Total_Precipitation_Accumulation
0.73 0.46 0.29 0.34 0.39 0.45 0.68 0.92 1.20 1.20 1.23 1.17 1.26 1.16 0.94 0.74 0.85 1.00 1.09 1.43 1.31 1.13 1.14 1.06 0.81 0.88 0.71 0.65 0.67 0.69 0.59 0.48 0.49 0.51 0.45 0.37 0.45 0.53 0.54 0.51 0.53 0.46 0.51
0.71 0.58 0.39 0.38 0.35 0.39 0.55 0.80 1.16 1.27 1.34 1.52 1.29 0.96 0.94 0.67 0.67 1.06 1.75 1.84 1.42 1.38 1.16 1.28 1.47 1.30 1.07 0.95 0.89 0.79 0.62 0.52 0.50 0.44 0.48 0.49 0.48 0.53 0.47 0.44 0.49 0.52 0.50
0.67 0.72 0.69 0.63 0.51 0.47 0.56 0.84 1.12 1.26 1.05 1.00 1.09 1.32 1.55 1.46 0.89 0.59 0.73 0.86 0.91 0.96 1.06 1.40 1.57 1.78 1.93 1.70 1.29 0.97 0.84 0.58 0.48 0.47 0.44 0.42 0.43 0.40 0.43 0.44 0.45 0.52 0.57
1.13 0.94 0.70 0.77 0.90 0.77 0.68 0.82 1.06 1.61 1.49 1.09 0.74 0.75 1.03 1.16 1.04 1.09 0.82 0.66 0.64 0.79 1.18 1.03 1.79 2.46 2.31 1.70 1.20 1.03 0.72 0.64 0.64 0.70 0.77 0.70 0.55 0.46 0.42 0.40 0.50 0.65 0.66
1.77 1.36 1.26 1.34 1.27 1.29 1.36 1.60 1.81 1.93 1.54 1.22 0.88 0.66 0.62 0.59 0.47 0.43 0.45 0.46 0.45 0.44 0.44 0.55 0.79 1.07 0.96 0.92 0.81 0.75 0.69 0.59 0.60 0.71 0.87 0.93 0.78 0.70 0.66 0.58 0.62 0.68 0.72
1.19 1.24 1.42 1.64 1.64 1.50 1.21 1.02 1.12 1.25 1.24 1.08 0.98 0.69 0.62 0.43 0.32 0.23 0.24 0.34 0.37 0.52 0.51 0.42 0.57 0.64 0.59 0.59 0.68 0.73 0.69 0.75 0.73 0.72 0.82 0.94 1.06 1.03 0.99 0.93 0.94 1.01 0.96
1.15 1.02 1.29 2.05 2.20 1.41 0.96 1.01 1.26 1.25 1.11 0.96 1.31 1.03 0.74 0.48 0.33 0.22 0.18 0.25 0.26 0.32 0.63 0.66 0.48 0.56 0.69 0.50 0.43 0.58 0.75 0.92 0.97 0.93 1.03 1.06 1.06 1.14 1.19 1.17 1.05 1.30 1.32
0.99 1.09 0.92 1.02 1.56 1.82 1.64 1.17 1.16 1.43 1.29 1.20 1.31 1.25 1.10 1.09 0.65 0.36 0.33 0.22 0.20 0.29 0.27 0.42 0.54 0.44 0.54 0.77 0.41 0.38 0.69 0.98 1.10 1.15 1.45 1.58 1.32 1.24 1.34 1.44 1.55 1.49 1.70
0.96 1.07 1.04 0.96 1.12 1.74 1.72 1.28 0.93 1.06 1.44 1.36 1.23 1.23 1.16 0.78 0.55 0.34 0.34 0.26 0.21 0.20 0.23 0.25 0.28 0.33 0.31 0.59 0.90 0.49 0.35 0.69 1.04 1.22 1.34 1.77 1.88 1.38 1.18 1.25 1.45 1.49 1.46
1.09 0.95 1.13 1.16 1.07 1.07 1.37 1.34 1.07 0.94 1.45 1.38 1.87 1.24 0.79 0.74 1.00 0.76 0.53 0.46 0.43 0.29 0.24 0.35 0.36 0.29 0.31 0.34 0.50 0.71 0.38 0.24 0.49 0.84 1.30 1.63 1.68 1.55 1.45 1.36 1.17 1.24 1.36
1.29 1.33 1.30 1.45 1.51 1.61 1.23 1.73 1.63 1.51 1.62 1.32 0.84 1.10 1.32 1.15 1.35 1.45 0.97 0.60 0.69 0.50 0.44 0.43 0.60 0.46 0.41 0.48 0.45 0.40 0.40 0.40 0.41 0.53 0.67 0.91 1.27 1.31 1.17 1.55 2.11 1.74 1.43
1.34 1.33 1.34 1.35 1.29 1.36 1.51 1.78 2.16 2.17 2.19 1.95 1.48 1.29 1.26 1.21 0.93 1.28 1.37 0.92 0.83 0.71 0.67 1.03 0.89 0.78 0.69 0.67 0.70 0.64 0.53 0.59 0.66 0.54 0.45 0.68 0.99 1.25 1.43 1.36 1.45 2.17 2.39
1.56 1.08 1.21 1.22 1.19 0.99 1.09 1.41 1.88 2.09 2.48 2.66 2.49 1.97 1.56 1.37 1.28 1.41 1.46 1.32 1.19 0.78 0.78 0.90 0.85 0.84 0.91 1.03 0.95 0.99 0.94 0.88 0.96 1.08 0.94 0.92 0.92 1.07 1.51 1.53 1.49 1.66 2.08
1.13 0.91 1.11 1.25 1.24 1.27 1.28 1.26 1.40 1.41 1.51 1.92 2.66 3.17 3.15 2.46 2.07 2.19 2.29 2.45 2.38 1.87 1.54 0.91 0.61 0.63 0.62 0.78 0.89 1.29 1.19 1.15 1.13 1.19 1.18 1.11 1.06 1.03 1.16 1.65 1.96 1.93 1.94
1.15 1.10 1.25 1.34 1.38 1.34 1.34 1.37 1.30 1.29 1.34 1.38 1.41 1.63 1.89 2.01 2.01 1.94 2.08 2.42 3.01 2.72 1.93 1.34 0.76 0.53 0.46 0.60 0.78 1.00 1.00 1.04 1.15 1.12 1.21 1.29 1.28 1.27 1.28 1.23 1.36 1.64 1.91
1.46 1.59 1.61 1.50 1.51 1.57 1.62 1.60 1.51 1.40 1.55 1.47 1.30 1.27 1.31 1.30 1.30 1.33 1.52 1.88 2.40 2.58 2.15 1.35 1.04 0.68 0.73 0.74 0.86 0.88 1.30 1.53 1.12 1.15 1.17 1.37 1.46 1.38 1.16 1.16 1.27 1.49 1.60
1.95 1.86 1.95 2.15 1.99 2.02 2.02 1.99 1.87 1.74 1.67 1.59 1.50 1.42 1.19 1.10 1.26 1.44 1.56 1.68 1.91 2.26 2.40 1.62 1.31 1.15 1.14 1.08 0.87 0.73 0.87 1.00 1.25 1.26 0.99 0.90 1.05 1.31 1.56 1.65 1.49 1.43 1.66
1.80 1.74 1.94 2.05 1.99 2.16 2.28 2.18 2.09 1.95 1.84 1.97 2.02 2.00 1.81 1.64 1.63 1.59 1.78 1.68 1.72 1.90 1.99 1.70 1.32 1.08 1.01 1.03 1.04 0.96 0.90 0.77 0.72 0.97 1.20 1.00 0.96 1.08 1.23 1.59 2.14 2.06 1.85
2.75 2.56 2.58 2.66 2.38 2.34 2.62 2.67 2.58 2.32 2.18 2.14 2.00 1.99 1.86 1.79 1.89 1.83 1.85 1.98 1.72 1.56 1.80 2.02 1.65 1.38 1.21 1.09 1.07 1.00 0.92 0.92 0.81 0.99 1.09 1.19 1.22 1.09 1.22 1.33 1.46 1.61 1.62
2.01 2.23 2.19 2.16 2.14 2.17 2.23 2.54 2.76 2.87 2.57 2.37 2.22 2.07 2.13 2.01 1.73 1.45 1.48 1.54 1.41 1.39 1.43 1.63 1.77 1.67 1.58 1.52 1.47 1.24 1.05 0.97 1.01 0.92 0.99 0.96 0.97 1.01 1.20 1.47 1.56 1.41 1.29
1.45 1.43 1.41 1.61 1.72 1.87 2.16 2.11 2.28 2.57 2.57 2.51 2.33 2.19 2.10 2.29 2.24 1.93 1.70 1.73 1.66 1.74 1.76 1.84 1.88 1.63 1.56 1.64 1.54 1.41 1.31 1.36 1.30 1.02 0.92 0.96 0.94 1.00 1.09 1.28 1.42 1.54 1.57
1.45 1.58 1.40 1.53 1.86 1.90 2.32 2.26 2.22 2.43 2.58 2.54 2.57 2.39 2.43 2.60 2.41 2.46 2.20 1.87 1.74 1.86 1.85 1.65 1.69 1.74 1.55 1.31 1.30 1.38 1.60 1.75 1.71 1.31 1.40 1.52 1.45 1.53 1.46 1.48 1.93 1.68 1.50
2.02 1.84 1.99 1.92 1.87 1.82 2.39 2.40 2.41 2.19 2.58 2.61 2.55 2.44 2.53 2.60 2.62 2.23 2.37 2.28 2.19 2.17 1.91 1.65 1.63 1.59 1.57 1.48 1.53 1.66 1.70 1.76 1.82 1.52 1.67 2.01 1.81 1.80 1.68 1.80 2.11 1.65 1.61
2.50 2.13 2.00 1.95 1.81 2.38 2.51 2.86 3.22 2.72 2.37 2.46 2.60 2.45 2.34 2.37 2.51 2.45 2.28 2.25 2.22 2.33 2.44 2.38 2.36 2.52 2.51 2.37 2.41 2.49 2.56 2.66 2.69 2.38 2.08 2.18 1.87 1.77 1.65 1.62 2.12 1.50 1.42
2.89 2.68 2.24 2.03 2.08 2.08 1.97 1.69 1.88 2.17 2.57 2.86 2.76 2.72 2.84 2.77 3.39 3.29 2.84 3.04 3.17 3.30 3.73 3.64 3.47 3.40 3.26 2.95 2.59 2.47 2.89 2.88 3.01 2.62 2.23 2.20 2.13 2.12 2.06 1.90 1.73 1.68 1.30
2.42 2.34 2.34 2.08 2.14 2.00 2.30 1.88 1.60 1.12 1.45 1.77 2.14 2.38 3.01 2.61 2.97 2.73 2.43 2.36 2.97 3.47 3.23 3.32 3.39 3.21 3.01 2.87 3.03 2.76 2.51 2.55 2.57 2.74 2.31 2.33 2.20 2.22 2.48 2.03 1.62 1.44 1.29

GFSMA_prec_precacc_204.txt.gz
Total_Precipitation_Accumulation
0.73 0.46 0.29 0.34 0.39 0.45 0.68 0.92 1.20 1.20 1.23 1.17 1.26 1.16 0.94 0.74 0.85 1.00 1.09 1.43 1.31 1.13 1.14 1.06 0.81 0.88 0.71 0.65 0.67 0.69 0.59 0.48 0.49 0.51 0.45 0.37 0.45 0.53 0.54 0.51 0.53 0.46 0.51
0.71 0.58 0.39 0.38 0.35 0.39 0.55 0.80 1.16 1.27 1.34 1.52 1.29 0.96 0.94 0.67 0.67 1.06 1.75 1.84 1.42 1.38 1.16 1.28 1.47 1.31 1.07 0.96 0.89 0.79 0.62 0.52 0.50 0.44 0.48 0.49 0.48 0.53 0.48 0.44 0.49 0.52 0.50
0.67 0.72 0.69 0.63 0.51 0.47 0.56 0.84 1.12 1.26 1.05 1.00 1.09 1.32 1.55 1.46 0.89 0.59 0.73 0.86 0.91 0.96 1.06 1.40 1.58 1.79 1.94 1.70 1.29 0.98 0.84 0.59 0.49 0.48 0.44 0.42 0.43 0.41 0.44 0.44 0.46 0.52 0.58
1.13 0.94 0.70 0.77 0.90 0.77 0.68 0.82 1.06 1.61 1.49 1.09 0.74 0.75 1.03 1.16 1.04 1.09 0.82 0.66 0.64 0.79 1.18 1.03 1.80 2.47 2.32 1.71 1.21 1.04 0.73 0.65 0.64 0.70 0.78 0.70 0.55 0.47 0.43 0.41 0.51 0.66 0.66
1.79 1.38 1.27 1.35 1.29 1.31 1.37 1.60 1.81 1.93 1.54 1.22 0.88 0.66 0.62 0.59 0.47 0.43 0.45 0.46 0.45 0.44 0.44 0.55 0.80 1.08 0.97 0.93 0.82 0.76 0.70 0.60 0.61 0.71 0.88 0.93 0.79 0.70 0.66 0.58 0.62 0.69 0.72
1.21 1.30 1.48 1.69 1.68 1.54 1.25 1.06 1.16 1.30 1.27 1.09 0.99 0.70 0.62 0.43 0.32 0.23 0.24 0.34 0.37 0.52 0.51 0.42 0.57 0.64 0.60 0.60 0.69 0.74 0.70 0.76 0.74 0.74 0.83 0.95 1.07 1.04 1.00 0.93 0.94 1.01 0.97
1.17 1.05 1.32 2.08 2.22 1.43 0.99 1.04 1.32 1.32 1.17 1.02 1.37 1.06 0.74 0.48 0.33 0.22 0.18 0.25 0.26 0.32 0.63 0.66 0.48 0.56 0.70 0.50 0.44 0.59 0.76 0.93 0.98 0.94 1.05 1.07 1.06 1.14 1.19 1.18 1.06 1.30 1.32
0.99 1.10 0.92 1.04 1.60 1.87 1.69 1.22 1.22 1.48 1.34 1.26 1.41 1.37 1.22 1.18 0.70 0.39 0.33 0.22 0.20 0.29 0.27 0.42 0.54 0.44 0.54 0.77 0.42 0.39 0.70 0.99 1.11 1.17 1.46 1.59 1.33 1.25 1.34 1.44 1.55 1.50 1.70
0.96 1.07 1.04 0.96 1.12 1.77 1.76 1.33 0.97 1.14 1.58 1.49 1.36 1.44 1.44 1.00 0.68 0.44 0.40 0.27 0.21 0.20 0.23 0.25 0.28 0.33 0.31 0.59 0.90 0.49 0.35 0.69 1.04 1.23 1.35 1.78 1.88 1.38 1.18 1.25 1.45 1.49 1.46
1.09 0.95 1.13 1.16 1.07 1.07 1.37 1.35 1.10 0.97 1.50 1.49 1.99 1.40 1.01 1.01 1.25 0.97 0.70 0.59 0.47 0.30 0.25 0.35 0.36 0.29 0.31 0.34 0.50 0.71 0.38 0.24 0.49 0.84 1.30 1.63 1.68 1.55 1.45 1.36 1.17 1.24 1.36
1.29 1.33 1.30 1.45 1.51 1.61 1.23 1.73 1.63 1.51 1.64 1.37 0.93 1.17 1.42 1.35 1.61 1.64 1.16 0.78 0.86 0.61 0.51 0.48 0.61 0.47 0.42 0.48 0.45 0.40 0.40 0.40 0.41 0.53 0.68 0.92 1.27 1.31 1.17 1.55 2.11 1.74 1.43
1.34 1.33 1.34 1.35 1.29 1.36 1.51 1.78 2.17 2.17 2.19 1.96 1.51 1.35 1.38 1.38 1.14 1.51 1.68 1.25 1.16 1.08 1.03 1.30 1.04 0.86 0.70 0.67 0.70 0.64 0.53 0.59 0.66 0.54 0.45 0.68 0.99 1.25 1.43 1.36 1.45 2.17 2.39
1.56 1.08 1.21 1.22 1.19 0.99 1.09 1.41 1.88 2.09 2.48 2.66 2.49 1.99 1.59 1.42 1.33 1.53 1.68 1.61 1.53 1.27 1.28 1.34 1.16 1.04 1.02 1.09 0.96 0.99 0.94 0.88 0.96 1.08 0.94 0.92 0.92 1.07 1.51 1.53 1.49 1.66 2.08
1.13 0.91 1.11 1.25 1.24 1.27 1.28 1.26 1.40 1.41 1.51 1.92 2.67 3.19 3.18 2.49 2.13 2.27 2.36 2.57 2.63 2.22 1.85 1.22 0.89 0.83 0.78 0.89 0.92 1.29 1.19 1.15 1.13 1.19 1.18 1.11 1.06 1.03 1.16 1.65 1.96 1.93 1.94
1.15 1.10 1.25 1.34 1.38 1.34 1.34 1.37 1.30 1.29 1.34 1.38 1.42 1.64 1.92 2.04 2.06 2.01 2.14 2.48 3.10 2.90 2.16 1.59 0.99 0.74 0.65 0.76 0.85 1.02 1.00 1.04 1.15 1.12 1.21 1.29 1.29 1.28 1.28 1.23 1.36 1.64 1.91
1.46 1.59 1.61 1.51 1.52 1.58 1.62 1.60 1.51 1.40 1.55 1.47 1.31 1.28 1.33 1.35 1.36 1.41 1.58 1.94 2.45 2.65 2.28 1.49 1.18 0.86 0.93 0.96 1.01 0.95 1.31 1.54 1.12 1.16 1.17 1.37 1.46 1.38 1.16 1.16 1.27 1.49 1.60
1.95 1.86 1.95 2.15 1.99 2.02 2.03 2.00 1.87 1.74 1.67 1.59 1.51 1.43 1.21 1.13 1.33 1.54 1.67 1.77 1.99 2.34 2.52 1.75 1.41 1.30 1.38 1.35 1.09 0.84 0.91 1.01 1.26 1.27 1.00 0.90 1.05 1.31 1.56 1.65 1.49 1.43 1.66
1.80 1.74 1.94 2.05 1.99 2.16 2.28 2.18 2.09 1.95 1.85 1.97 2.03 2.01 1.83 1.69 1.70 1.68 1.94 1.83 1.79 1.94 2.05 1.81 1.43 1.21 1.26 1.40 1.30 1.08 0.95 0.78 0.72 0.97 1.20 1.01 0.96 1.08 1.23 1.59 2.14 2.06 1.85
2.75 2.56 2.58 2.66 2.38 2.34 2.62 2.67 2.58 2.33 2.18 2.14 2.00 2.00 1.86 1.80 1.94 1.93 1.96 2.04 1.79 1.62 1.87 2.08 1.71 1.53 1.54 1.42 1.39 1.28 1.03 0.94 0.83 1.01 1.10 1.19 1.22 1.09 1.22 1.33 1.46 1.61 1.62
2.01 2.23 2.19 2.16 2.14 2.17 2.23 2.54 2.76 2.88 2.57 2.38 2.23 2.08 2.14 2.01 1.75 1.50 1.56 1.65 1.51 1.45 1.48 1.68 1.83 1.85 1.90 1.94 1.81 1.44 1.24 1.09 1.05 0.94 1.01 0.96 0.97 1.01 1.20 1.47 1.56 1.41 1.29
1.45 1.43 1.41 1.61 1.72 1.87 2.17 2.12 2.30 2.59 2.59 2.53 2.37 2.24 2.18 2.37 2.30 1.98 1.77 1.78 1.75 1.86 1.83 1.90 1.99 1.85 1.88 2.00 1.93 1.70 1.46 1.48 1.38 1.05 0.94 0.97 0.94 1.00 1.09 1.28 1.42 1.54 1.57
1.45 1.58 1.40 1.53 1.86 1.90 2.34 2.27 2.23 2.46 2.60 2.59 2.63 2.45 2.56 2.80 2.59 2.59 2.31 2.01 1.84 1.92 1.92 1.72 1.80 1.90 1.77 1.52 1.48 1.53 1.79 1.95 1.88 1.38 1.42 1.54 1.46 1.53 1.46 1.48 1.93 1.68 1.50
2.02 1.84 1.99 1.92 1.87 1.82 2.41 2.40 2.41 2.20 2.61 2.66 2.63 2.55 2.62 2.68 2.74 2.39 2.60 2.49 2.33 2.27 2.02 1.84 1.84 1.74 1.75 1.72 1.76 1.90 1.89 1.86 1.88 1.58 1.71 2.05 1.83 1.80 1.68 1.80 2.11 1.65 1.61
2.50 2.13 2.00 1.95 1.81 2.38 2.51 2.86 3.23 2.73 2.41 2.56 2.71 2.50 2.39 2.42 2.62 2.59 2.50 2.62 2.52 2.50 2.61 2.64 2.64 2.78 2.69 2.55 2.56 2.62 2.68 2.77 2.76 2.45 2.12 2.20 1.88 1.77 1.65 1.62 2.12 1.50 1.42
2.89 2.68 2.24 2.03 2.08 2.08 1.97 1.69 1.89 2.21 2.62 2.96 2.86 2.80 2.94 2.86 3.55 3.44 3.03 3.35 3.49 3.56 3.98 3.90 3.72 3.63 3.45 3.08 2.73 2.66 3.12 2.98 3.08 2.67 2.25 2.20 2.14 2.12 2.06 1.90 1.73 1.68 1.30
2.43 2.34 2.34 2.08 2.15 2.01 2.31 1.89 1.64 1.19 1.52 1.84 2.23 2.51 3.16 2.73 3.10 2.88 2.62 2.57 3.20 3.71 3.48 3.59 3.63 3.42 3.22 3.05 3.14 2.81 2.55 2.57 2.59 2.75 2.32 2.33 2.20 2.22 2.48 2.03 1.62 1.44 1.29